Time,TemperatureF,DewpointF,PressureIn,WindDirection,WindDirectionDegrees,WindSpeedMPH,WindSpeedGustMPH,Humidity,HourlyPrecipIn,Conditions,Clouds,dailyrainin,SolarRadiationWatts/m^2,SoftwareType,DateUTC
2013-11-16 00:00:00,53.3,48.3,30.21,NNE,17,2.0,0.0,83,0.00,,CLR,0.00,0.00,VWS V15.00,2013-11-16 05:00:00,
2013-11-16 00:01:00,54.2,48.5,30.23,NNE,13,1.0,0.0,81,0.00,,OVC037,0.00,0.00,VWS V14.01,2013-11-16 05:01:00,
2013-11-16 00:02:00,54.2,48.5,30.23,North,5,0.0,0.0,81,0.00,,OVC037,0.00,0.00,VWS V14.01,2013-11-16 05:02:00,
2013-11-16 00:05:00,53.3,48.3,30.21,NE,44,2.0,0.0,83,0.00,,CLR,0.00,0.00,VWS V15.00,2013-11-16 05:05:00,
2013-11-16 00:07:00,54.1,48.7,30.23,North,360,1.0,0.0,82,0.00,,OVC037,0.00,0.00,VWS V14.01,2013-11-16 05:07:00,
2013-11-16 00:10:00,53.3,48.3,30.21,NE,41,2.0,0.0,83,0.00,,CLR,0.00,0.00,VWS V15.00,2013-11-16 05:10:00,
2013-11-16 00:12:00,54.1,48.7,30.23,NNE,19,2.0,0.0,82,0.00,,OVC037,0.00,0.00,VWS V14.01,2013-11-16 05:12:00,
2013-11-16 00:15:00,53.3,48.3,30.21,NE,44,2.0,0.0,83,0.00,,CLR,0.00,0.00,VWS V15.00,2013-11-16 05:15:00,
2013-11-16 00:17:00,54.0,48.6,30.23,North,355,2.0,0.0,82,0.00,,OVC037,0.00,0.00,VWS V14.01,2013-11-16 05:17:00,
2013-11-16 00:20:00,53.2,48.2,30.21,NE,42,1.0,0.0,83,0.00,,CLR,0.00,0.00,VWS V15.00,2013-11-16 05:20:00,
2013-11-16 00:22:00,53.9,48.5,30.23,NE,44,3.0,0.0,82,0.00,,OVC037,0.00,0.00,VWS V14.01,2013-11-16 05:22:00,
2013-11-16 00:25:00,53.1,48.1,30.21,NE,36,2.0,0.0,83,0.00,,CLR,0.00,0.00,VWS V15.00,2013-11-16 05:25:00,
2013-11-16 00:27:00,53.9,48.5,30.22,ENE,58,2.0,0.0,82,0.00,,OVC037,0.00,0.00,VWS V14.01,2013-11-16 05:27:00,
2013-11-16 00:30:00,53.1,48.4,30.21,NE,47,2.0,0.0,84,0.00,,CLR,0.00,0.00,VWS V15.00,2013-11-16 05:30:00,
2013-11-16 00:32:00,53.8,48.4,30.21,East,99,4.0,0.0,82,0.00,,OVC037,0.00,0.00,VWS V14.01,2013-11-16 05:32:00,
2013-11-16 00:35:00,53.0,48.3,30.21,NNE,20,3.0,0.0,84,0.00,,CLR,0.00,0.00,VWS V15.00,2013-11-16 05:35:00,
2013-11-16 00:37:00,53.6,48.2,30.21,East,88,1.0,0.0,82,0.00,,OVC014,0.00,0.00,VWS V14.01,2013-11-16 05:37:00,
2013-11-16 00:40:00,52.9,48.2,30.21,NE,43,3.0,0.0,84,0.00,,CLR,0.00,0.00,VWS V15.00,2013-11-16 05:40:00,
2013-11-16 00:42:00,53.5,48.2,30.21,NE,40,1.0,0.0,82,0.00,,OVC014,0.00,0.00,VWS V14.01,2013-11-16 05:42:00,
2013-11-16 00:45:00,52.8,48.1,30.21,North,9,3.0,0.0,84,0.00,,CLR,0.00,0.00,VWS V15.00,2013-11-16 05:45:00,
2013-11-16 00:47:00,53.3,48.3,30.21,NNE,28,0.0,0.0,83,0.00,,OVC014,0.00,0.00,VWS V14.01,2013-11-16 05:47:00,
2013-11-16 00:50:00,52.8,48.1,30.21,NE,40,3.0,0.0,84,0.00,,CLR,0.00,0.00,VWS V15.00,2013-11-16 05:50:00,
2013-11-16 00:52:00,53.3,48.3,30.22,NNE,14,0.0,0.0,83,0.00,,OVC014,0.00,0.00,VWS V14.01,2013-11-16 05:52:00,
2013-11-16 00:55:00,52.7,48.0,30.21,NNE,20,2.0,0.0,84,0.00,,CLR,0.00,0.00,VWS V15.00,2013-11-16 05:55:00,
2013-11-16 00:57:00,53.3,48.3,30.21,North,355,1.0,0.0,83,0.00,,OVC014,0.00,0.00,VWS V14.01,2013-11-16 05:57:00,
2013-11-16 01:00:00,52.6,48.2,30.21,NNE,17,2.0,0.0,85,0.00,,CLR,0.00,0.00,VWS V15.00,2013-11-16 06:00:00,
2013-11-16 01:02:00,53.3,48.3,30.21,NNE,12,2.0,0.0,83,0.00,,OVC014,0.00,0.00,VWS V14.01,2013-11-16 06:02:00,
2013-11-16 01:05:00,52.5,48.1,30.21,NNE,15,2.0,0.0,85,0.00,,CLR,0.00,0.00,VWS V15.00,2013-11-16 06:05:00,
2013-11-16 01:07:00,53.3,48.3,30.21,NE,40,2.0,0.0,83,0.00,,OVC014,0.00,0.00,VWS V14.01,2013-11-16 06:07:00,
2013-11-16 01:10:00,52.5,48.1,30.22,North,10,3.0,0.0,85,0.00,,CLR,0.00,0.00,VWS V15.00,2013-11-16 06:10:00,
2013-11-16 01:12:00,53.3,48.3,30.21,NE,45,1.0,0.0,83,0.00,,OVC014,0.00,0.00,VWS V14.01,2013-11-16 06:12:00,
2013-11-16 01:15:00,52.4,48.0,30.22,NNE,32,2.0,0.0,85,0.00,,CLR,0.00,0.00,VWS V15.00,2013-11-16 06:15:00,
2013-11-16 01:17:00,53.3,48.3,30.21,NE,44,2.0,0.0,83,0.00,,OVC014,0.00,0.00,VWS V14.01,2013-11-16 06:17:00,
2013-11-16 01:20:00,52.4,48.0,30.22,NNE,13,2.0,0.0,85,0.00,,CLR,0.00,0.00,VWS V15.00,2013-11-16 06:20:00,
2013-11-16 01:22:00,53.2,48.2,30.21,NE,34,2.0,0.0,83,0.00,,OVC014,0.00,0.00,VWS V14.01,2013-11-16 06:22:00,
2013-11-16 01:25:00,52.4,48.0,30.22,NNE,32,3.0,0.0,85,0.00,,CLR,0.00,0.00,VWS V15.00,2013-11-16 06:25:00,
2013-11-16 01:28:00,53.1,48.4,30.21,NE,39,3.0,0.0,84,0.00,,OVC014,0.00,0.00,VWS V14.01,2013-11-16 06:28:00,
2013-11-16 01:30:00,52.4,48.0,30.22,North,10,2.0,0.0,85,0.00,,CLR,0.00,0.00,VWS V15.00,2013-11-16 06:30:00,
2013-11-16 01:33:00,53.0,48.3,30.21,NE,37,2.0,0.0,84,0.00,,OVC014,0.00,0.00,VWS V14.01,2013-11-16 06:33:00,
2013-11-16 01:35:00,52.4,48.0,30.23,NNE,28,2.0,0.0,85,0.00,,CLR,0.00,0.00,VWS V15.00,2013-11-16 06:35:00,
2013-11-16 01:38:00,53.0,48.3,30.21,NE,45,1.0,0.0,84,0.00,,OVC010,0.00,0.00,VWS V14.01,2013-11-16 06:38:00,
2013-11-16 01:40:00,52.4,48.0,30.23,NE,36,2.0,0.0,85,0.00,,CLR,0.00,0.00,VWS V15.00,2013-11-16 06:40:00,
2013-11-16 01:42:00,52.8,48.1,30.21,NNE,28,2.0,0.0,84,0.00,,OVC010,0.00,0.00,VWS V14.01,2013-11-16 06:42:00,
2013-11-16 01:45:00,52.4,48.0,30.23,NNE,17,4.0,0.0,85,0.00,,CLR,0.00,0.00,VWS V15.00,2013-11-16 06:45:00,
2013-11-16 01:47:00,52.8,48.1,30.21,North,360,1.0,0.0,84,0.00,,OVC010,0.00,0.00,VWS V14.01,2013-11-16 06:47:00,
2013-11-16 01:50:00,52.5,48.1,30.23,NNE,26,4.0,0.0,85,0.00,,CLR,0.00,0.00,VWS V15.00,2013-11-16 06:50:00,
2013-11-16 01:53:00,52.8,48.1,30.21,NE,52,3.0,0.0,84,0.00,,OVC010,0.00,0.00,VWS V14.01,2013-11-16 06:53:00,
2013-11-16 01:55:00,52.5,48.1,30.23,NNE,19,3.0,0.0,85,0.00,,CLR,0.00,0.00,VWS V15.00,2013-11-16 06:55:00,
2013-11-16 01:58:00,52.7,48.3,30.21,NNE,22,2.0,0.0,85,0.00,,OVC010,0.00,0.00,VWS V14.01,2013-11-16 06:58:00,
2013-11-16 02:00:00,52.5,48.1,30.22,NE,51,3.0,0.0,85,0.00,,CLR,0.00,0.00,VWS V15.00,2013-11-16 07:00:00,
2013-11-16 02:03:00,52.6,48.2,30.21,North,351,3.0,0.0,85,0.00,,OVC010,0.00,0.00,VWS V14.01,2013-11-16 07:03:00,
2013-11-16 02:05:00,52.5,48.1,30.22,NNE,32,2.0,0.0,85,0.00,,CLR,0.00,0.00,VWS V15.00,2013-11-16 07:05:00,
2013-11-16 02:08:00,52.5,48.1,30.22,NNE,13,4.0,0.0,85,0.00,,OVC010,0.00,0.00,VWS V14.01,2013-11-16 07:08:00,
2013-11-16 02:10:00,52.6,48.2,30.22,NNE,30,2.0,0.0,85,0.00,,CLR,0.00,0.00,VWS V15.00,2013-11-16 07:10:00,
2013-11-16 02:13:00,52.5,48.1,30.22,NNE,30,3.0,0.0,85,0.00,,OVC010,0.00,0.00,VWS V14.01,2013-11-16 07:13:00,
2013-11-16 02:15:00,52.6,48.2,30.22,NNW,342,2.0,0.0,85,0.00,,CLR,0.00,0.00,VWS V15.00,2013-11-16 07:15:00,
2013-11-16 02:18:00,52.4,48.0,30.22,North,5,2.0,0.0,85,0.00,,OVC010,0.00,0.00,VWS V14.01,2013-11-16 07:18:00,
2013-11-16 02:20:00,52.6,48.2,30.22,NNE,22,2.0,0.0,85,0.00,,CLR,0.00,0.00,VWS V15.00,2013-11-16 07:20:00,
2013-11-16 02:23:00,52.4,48.0,30.22,North,355,1.0,0.0,85,0.00,,OVC010,0.00,0.00,VWS V14.01,2013-11-16 07:23:00,
2013-11-16 02:25:00,52.6,48.2,30.22,NE,39,3.0,0.0,85,0.00,,CLR,0.00,0.00,VWS V15.00,2013-11-16 07:25:00,
2013-11-16 02:28:00,52.4,48.0,30.22,North,9,2.0,0.0,85,0.00,,OVC010,0.00,0.00,VWS V14.01,2013-11-16 07:28:00,
2013-11-16 02:30:00,52.6,48.2,30.22,NE,36,3.0,0.0,85,0.00,,CLR,0.00,0.00,VWS V15.00,2013-11-16 07:30:00,
2013-11-16 02:33:00,52.4,48.0,30.22,North,355,4.0,0.0,85,0.00,,OVC010,0.00,0.00,VWS V14.01,2013-11-16 07:33:00,
2013-11-16 02:35:00,52.6,48.2,30.22,NNE,16,2.0,0.0,85,0.00,,CLR,0.00,0.00,VWS V15.00,2013-11-16 07:35:00,
2013-11-16 02:38:00,52.4,48.0,30.23,NE,34,2.0,0.0,85,0.00,,OVC010,0.00,0.00,VWS V14.01,2013-11-16 07:38:00,
2013-11-16 02:40:00,52.7,48.3,30.23,NNE,18,1.0,0.0,85,0.00,,CLR,0.00,0.00,VWS V15.00,2013-11-16 07:40:00,
2013-11-16 02:43:00,52.4,48.0,30.23,NNE,13,2.0,0.0,85,0.00,,OVC010,0.00,0.00,VWS V14.01,2013-11-16 07:43:00,
2013-11-16 02:45:00,52.7,48.3,30.22,NNE,25,2.0,0.0,85,0.00,,CLR,0.00,0.00,VWS V15.00,2013-11-16 07:45:00,
2013-11-16 02:48:00,52.4,48.0,30.23,NNE,22,3.0,0.0,85,0.00,,OVC010,0.00,0.00,VWS V14.01,2013-11-16 07:48:00,
2013-11-16 02:50:00,52.8,48.4,30.22,NE,39,3.0,0.0,85,0.00,,CLR,0.00,0.00,VWS V15.00,2013-11-16 07:50:00,
2013-11-16 02:53:00,52.4,48.0,30.22,NE,38,3.0,0.0,85,0.00,,OVC010,0.00,0.00,VWS V14.01,2013-11-16 07:53:00,
2013-11-16 02:55:00,52.8,48.4,30.23,North,5,3.0,0.0,85,0.00,,CLR,0.00,0.00,VWS V15.00,2013-11-16 07:55:00,
2013-11-16 02:58:00,52.5,48.1,30.22,NE,39,2.0,0.0,85,0.00,,OVC010,0.00,0.00,VWS V14.01,2013-11-16 07:58:00,
2013-11-16 03:00:00,52.8,48.4,30.23,NNW,329,2.0,0.0,85,0.00,,CLR,0.00,0.00,VWS V15.00,2013-11-16 08:00:00,
2013-11-16 03:03:00,52.5,48.1,30.22,NE,36,2.0,0.0,85,0.00,,OVC010,0.00,0.00,VWS V14.01,2013-11-16 08:03:00,
2013-11-16 03:05:00,52.8,48.4,30.22,NE,44,4.0,0.0,85,0.00,,CLR,0.00,0.00,VWS V15.00,2013-11-16 08:05:00,
2013-11-16 03:08:00,52.5,48.1,30.22,NNE,27,1.0,0.0,85,0.00,,OVC010,0.00,0.00,VWS V14.01,2013-11-16 08:08:00,
2013-11-16 03:10:00,52.8,48.4,30.22,NNE,24,2.0,0.0,85,0.00,,CLR,0.00,0.00,VWS V15.00,2013-11-16 08:10:00,
2013-11-16 03:14:00,52.6,48.2,30.22,North,355,2.0,0.0,85,0.00,,OVC010,0.00,0.00,VWS V14.01,2013-11-16 08:14:00,
2013-11-16 03:15:00,52.8,48.4,30.22,North,11,2.0,0.0,85,0.00,,CLR,0.00,0.00,VWS V15.00,2013-11-16 08:15:00,
2013-11-16 03:19:00,52.6,48.2,30.22,NE,46,4.0,0.0,85,0.00,,OVC010,0.00,0.00,VWS V14.01,2013-11-16 08:19:00,
2013-11-16 03:20:00,52.7,48.6,30.22,NNE,24,3.0,0.0,86,0.00,,CLR,0.00,0.00,VWS V15.00,2013-11-16 08:20:00,
2013-11-16 03:24:00,52.6,48.2,30.22,NNE,30,2.0,0.0,85,0.00,,OVC010,0.00,0.00,VWS V14.01,2013-11-16 08:24:00,
2013-11-16 03:25:00,52.7,48.3,30.22,NE,40,2.0,0.0,85,0.00,,CLR,0.00,0.00,VWS V15.00,2013-11-16 08:25:00,
2013-11-16 03:29:00,52.6,48.2,30.22,NE,40,2.0,0.0,85,0.00,,OVC010,0.00,0.00,VWS V14.01,2013-11-16 08:29:00,
2013-11-16 03:30:00,52.6,48.5,30.22,NNE,28,3.0,0.0,86,0.00,,CLR,0.00,0.00,VWS V15.00,2013-11-16 08:30:00,
2013-11-16 03:34:00,52.6,48.2,30.22,North,5,2.0,0.0,85,0.00,,OVC010,0.00,0.00,VWS V14.01,2013-11-16 08:34:00,
2013-11-16 03:35:00,52.5,48.4,30.21,NNE,25,3.0,0.0,86,0.00,,CLR,0.00,0.00,VWS V15.00,2013-11-16 08:35:00,
2013-11-16 03:39:00,52.7,48.3,30.23,NNE,18,0.0,0.0,85,0.00,,OVC010,0.00,0.00,VWS V14.01,2013-11-16 08:39:00,
2013-11-16 03:40:00,52.4,48.3,30.21,NE,40,1.0,0.0,86,0.00,,CLR,0.00,0.00,VWS V15.00,2013-11-16 08:40:00,
2013-11-16 03:44:00,52.7,48.3,30.22,NNE,14,3.0,0.0,85,0.00,,OVC010,0.00,0.00,VWS V14.01,2013-11-16 08:44:00,
2013-11-16 03:45:00,52.2,48.2,30.21,NNE,24,3.0,0.0,86,0.00,,CLR,0.00,0.00,VWS V15.00,2013-11-16 08:45:00,
2013-11-16 03:49:00,52.8,48.4,30.22,NNE,20,2.0,0.0,85,0.00,,OVC010,0.00,0.00,VWS V14.01,2013-11-16 08:49:00,
2013-11-16 03:50:00,51.9,47.8,30.21,NNE,28,2.0,0.0,86,0.00,,CLR,0.00,0.00,VWS V15.00,2013-11-16 08:50:00,
2013-11-16 03:54:00,52.8,48.4,30.23,NNE,14,2.0,0.0,85,0.00,,OVC010,0.00,0.00,VWS V14.01,2013-11-16 08:54:00,
2013-11-16 03:55:00,51.6,47.6,30.21,NE,39,2.0,0.0,86,0.00,,CLR,0.00,0.00,VWS V15.00,2013-11-16 08:55:00,
2013-11-16 03:59:00,52.8,48.4,30.23,North,355,1.0,0.0,85,0.00,,OVC010,0.00,0.00,VWS V14.01,2013-11-16 08:59:00,
2013-11-16 04:00:00,51.4,47.7,30.21,NNE,32,2.0,0.0,87,0.00,,CLR,0.00,0.00,VWS V15.00,2013-11-16 09:00:00,
2013-11-16 04:04:00,52.8,48.4,30.22,NE,44,4.0,0.0,85,0.00,,OVC010,0.00,0.00,VWS V14.01,2013-11-16 09:04:00,
2013-11-16 04:05:00,51.2,47.8,30.21,NE,45,2.0,0.0,88,0.00,,CLR,0.00,0.00,VWS V15.00,2013-11-16 09:05:00,
2013-11-16 04:09:00,52.8,48.4,30.22,NNE,24,2.0,0.0,85,0.00,,OVC010,0.00,0.00,VWS V14.01,2013-11-16 09:09:00,
2013-11-16 04:10:00,51.1,47.7,30.21,NNE,20,2.0,0.0,88,0.00,,CLR,0.00,0.00,VWS V15.00,2013-11-16 09:10:00,
2013-11-16 04:15:00,52.8,48.4,30.22,North,11,2.0,0.0,85,0.00,,OVC010,0.00,0.00,VWS V14.01,2013-11-16 09:15:00,
2013-11-16 04:20:00,52.7,48.6,30.22,NNE,24,3.0,0.0,86,0.00,,OVC010,0.00,0.00,VWS V14.01,2013-11-16 09:20:00,
2013-11-16 04:25:00,52.7,48.3,30.22,NE,40,2.0,0.0,85,0.00,,OVC010,0.00,0.00,VWS V14.01,2013-11-16 09:25:00,
2013-11-16 04:30:00,52.6,48.5,30.22,NNE,30,3.0,0.0,86,0.00,,OVC010,0.00,0.00,VWS V14.01,2013-11-16 09:30:00,
2013-11-16 04:35:00,52.5,48.4,30.21,North,5,3.0,0.0,86,0.00,,OVC010,0.00,0.00,VWS V14.01,2013-11-16 09:35:00,
2013-11-16 04:40:00,52.3,48.2,30.21,NNE,24,3.0,0.0,86,0.00,,OVC023,0.00,0.00,VWS V14.01,2013-11-16 09:40:00,
2013-11-16 04:45:00,52.1,48.0,30.21,NNE,20,1.0,0.0,86,0.00,,OVC023,0.00,0.00,VWS V14.01,2013-11-16 09:45:00,
2013-11-16 04:50:00,51.8,47.8,30.21,NNE,28,2.0,0.0,86,0.00,,OVC023,0.00,0.00,VWS V14.01,2013-11-16 09:50:00,
2013-11-16 04:55:00,51.6,47.6,30.21,NE,39,2.0,0.0,86,0.00,,OVC023,0.00,0.00,VWS V14.01,2013-11-16 09:55:00,
2013-11-16 05:00:00,51.3,47.6,30.21,NNE,30,2.0,0.0,87,0.00,,OVC023,0.00,0.00,VWS V14.01,2013-11-16 10:00:00,
2013-11-16 05:05:00,51.2,47.8,30.21,NE,42,1.0,0.0,88,0.00,,OVC023,0.00,0.00,VWS V14.01,2013-11-16 10:05:00,
2013-11-16 05:10:00,51.7,48.6,30.22,North,9,2.0,0.0,89,0.00,,CLR,0.00,0.00,VWS V15.00,2013-11-16 10:10:00,
2013-11-16 05:11:00,51.1,47.7,30.21,NNE,28,3.0,0.0,88,0.00,,OVC023,0.00,0.00,VWS V14.01,2013-11-16 10:11:00,
2013-11-16 05:15:00,51.7,48.6,30.22,North,355,2.0,0.0,89,0.00,,CLR,0.00,0.00,VWS V15.00,2013-11-16 10:15:00,
2013-11-16 05:16:00,51.0,47.6,30.21,NNE,20,2.0,0.0,88,0.00,,OVC023,0.00,0.00,VWS V14.01,2013-11-16 10:16:00,
2013-11-16 05:20:00,51.7,48.6,30.22,NNE,24,3.0,0.0,89,0.00,,CLR,0.00,0.00,VWS V15.00,2013-11-16 10:20:00,
2013-11-16 05:21:00,51.0,47.9,30.21,NNE,17,2.0,0.0,89,0.00,,OVC023,0.00,0.00,VWS V14.01,2013-11-16 10:21:00,
2013-11-16 05:25:00,51.8,48.7,30.22,NE,34,1.0,0.0,89,0.00,,CLR,0.00,0.00,VWS V15.00,2013-11-16 10:25:00,
2013-11-16 05:26:00,51.1,48.0,30.22,North,355,2.0,0.0,89,0.00,,OVC023,0.00,0.00,VWS V14.01,2013-11-16 10:26:00,
2013-11-16 05:30:00,51.8,48.7,30.22,NE,37,1.0,0.0,89,0.00,,CLR,0.00,0.00,VWS V15.00,2013-11-16 10:30:00,
2013-11-16 05:31:00,51.2,48.1,30.22,NNE,17,2.0,0.0,89,0.00,,OVC023,0.00,0.00,VWS V14.01,2013-11-16 10:31:00,
2013-11-16 05:35:00,51.7,48.6,30.22,NE,47,4.0,0.0,89,0.00,,CLR,0.00,0.00,VWS V15.00,2013-11-16 10:35:00,
2013-11-16 05:36:00,51.4,48.3,30.21,NNE,27,1.0,0.0,89,0.00,,BKN039,0.00,0.00,VWS V14.01,2013-11-16 10:36:00,
2013-11-16 05:40:00,51.6,48.5,30.22,NE,34,3.0,0.0,89,0.00,,CLR,0.00,0.00,VWS V15.00,2013-11-16 10:40:00,
2013-11-16 05:41:00,51.4,48.3,30.21,NNE,24,2.0,0.0,89,0.00,,BKN039,0.00,0.00,VWS V14.01,2013-11-16 10:41:00,
2013-11-16 05:45:00,51.5,48.4,30.22,NNE,26,2.0,0.0,89,0.00,,CLR,0.00,0.00,VWS V15.00,2013-11-16 10:45:00,
2013-11-16 05:46:00,51.4,48.3,30.22,NNE,29,3.0,0.0,89,0.00,,BKN039,0.00,0.00,VWS V14.01,2013-11-16 10:46:00,
2013-11-16 05:50:00,51.5,48.4,30.22,NE,53,2.0,0.0,89,0.00,,CLR,0.00,0.00,VWS V15.00,2013-11-16 10:50:00,
2013-11-16 05:51:00,51.4,48.3,30.22,NE,37,2.0,0.0,89,0.00,,BKN039,0.00,0.00,VWS V14.01,2013-11-16 10:51:00,
2013-11-16 05:55:00,51.4,48.3,30.23,NE,34,2.0,0.0,89,0.00,,CLR,0.00,0.00,VWS V15.00,2013-11-16 10:55:00,
2013-11-16 05:56:00,51.5,48.4,30.21,NE,38,3.0,0.0,89,0.00,,BKN039,0.00,0.00,VWS V14.01,2013-11-16 10:56:00,
2013-11-16 06:00:00,51.4,48.6,30.23,NE,41,3.0,0.0,90,0.00,,CLR,0.00,0.00,VWS V15.00,2013-11-16 11:00:00,
2013-11-16 06:02:00,51.6,48.5,30.22,North,11,0.0,0.0,89,0.00,,BKN039,0.00,0.00,VWS V14.01,2013-11-16 11:02:00,
2013-11-16 06:05:00,51.5,48.7,30.23,NE,47,3.0,0.0,90,0.00,,CLR,0.00,5.00,VWS V15.00,2013-11-16 11:05:00,
2013-11-16 06:07:00,51.6,48.5,30.22,NNE,13,2.0,0.0,89,0.00,,BKN039,0.00,0.00,VWS V14.01,2013-11-16 11:07:00,
2013-11-16 06:10:00,51.5,48.7,30.23,NE,40,3.0,0.0,90,0.00,,CLR,0.00,7.00,VWS V15.00,2013-11-16 11:10:00,
2013-11-16 06:12:00,51.7,48.6,30.22,North,355,1.0,0.0,89,0.00,,BKN039,0.00,0.00,VWS V14.01,2013-11-16 11:12:00,
2013-11-16 06:15:00,51.6,48.5,30.23,ENE,63,5.0,0.0,89,0.00,,CLR,0.00,11.00,VWS V15.00,2013-11-16 11:15:00,
2013-11-16 06:17:00,51.7,48.6,30.22,NE,34,3.0,0.0,89,0.00,,BKN039,0.00,0.00,VWS V14.01,2013-11-16 11:17:00,
2013-11-16 06:20:00,51.7,48.6,30.23,NNE,26,3.0,0.0,89,0.00,,CLR,0.00,16.00,VWS V15.00,2013-11-16 11:20:00,
2013-11-16 06:22:00,51.8,48.7,30.22,NE,36,4.0,0.0,89,0.00,,BKN039,0.00,0.00,VWS V14.01,2013-11-16 11:22:00,
2013-11-16 06:25:00,51.7,48.6,30.23,East,93,4.0,0.0,89,0.00,,CLR,0.00,19.00,VWS V15.00,2013-11-16 11:25:00,
2013-11-16 06:27:00,51.8,48.7,30.22,NNE,13,2.0,0.0,89,0.00,,BKN039,0.00,0.00,VWS V14.01,2013-11-16 11:27:00,
2013-11-16 06:30:00,51.8,48.7,30.24,NE,42,1.0,0.0,89,0.00,,CLR,0.00,23.00,VWS V15.00,2013-11-16 11:30:00,
2013-11-16 06:32:00,51.7,48.6,30.22,NE,51,2.0,0.0,89,0.00,,BKN039,0.00,0.00,VWS V14.01,2013-11-16 11:32:00,
2013-11-16 06:35:00,51.9,48.8,30.24,NE,47,4.0,0.0,89,0.00,,CLR,0.00,26.00,VWS V15.00,2013-11-16 11:35:00,
2013-11-16 06:37:00,51.7,48.6,30.22,NE,43,3.0,0.0,89,0.00,,,0.00,0.00,VWS V14.01,2013-11-16 11:37:00,
2013-11-16 06:40:00,52.0,48.9,30.24,NNE,28,4.0,0.0,89,0.00,,CLR,0.00,32.00,VWS V15.00,2013-11-16 11:40:00,
2013-11-16 06:42:00,51.6,48.5,30.22,NE,39,1.0,0.0,89,0.00,,,0.00,0.00,VWS V14.01,2013-11-16 11:42:00,
2013-11-16 06:45:00,52.0,48.9,30.24,NNE,22,2.0,0.0,89,0.00,,CLR,0.00,44.00,VWS V15.00,2013-11-16 11:45:00,
2013-11-16 06:47:00,51.5,48.4,30.22,NNE,17,2.0,0.0,89,0.00,,,0.00,0.00,VWS V14.01,2013-11-16 11:47:00,
2013-11-16 06:50:00,52.1,49.0,30.24,NE,49,4.0,0.0,89,0.00,,CLR,0.00,51.00,VWS V15.00,2013-11-16 11:50:00,
2013-11-16 06:52:00,51.4,48.3,30.22,NNE,32,2.0,0.0,89,0.00,,,0.00,0.00,VWS V14.01,2013-11-16 11:52:00,
2013-11-16 06:55:00,52.2,49.1,30.24,ENE,71,4.0,0.0,89,0.00,,CLR,0.00,60.00,VWS V15.00,2013-11-16 11:55:00,
2013-11-16 06:57:00,51.4,48.6,30.23,NE,46,3.0,0.0,90,0.00,,,0.00,0.00,VWS V14.01,2013-11-16 11:57:00,
2013-11-16 07:00:00,52.3,49.2,30.24,NNE,33,3.0,0.0,89,0.00,,CLR,0.00,62.00,VWS V15.00,2013-11-16 12:00:00,
2013-11-16 07:02:00,51.4,48.6,30.23,NNE,33,2.0,0.0,90,0.00,,,0.00,5.00,VWS V14.01,2013-11-16 12:02:00,
2013-11-16 07:05:00,52.3,48.9,30.24,NE,46,5.0,0.0,88,0.00,,CLR,0.00,70.00,VWS V15.00,2013-11-16 12:05:00,
2013-11-16 07:08:00,51.5,48.7,30.23,NE,37,2.0,0.0,90,0.00,,,0.00,5.00,VWS V14.01,2013-11-16 12:08:00,
2013-11-16 07:10:00,52.4,49.0,30.24,NNE,17,2.0,0.0,88,0.00,,CLR,0.00,70.00,VWS V15.00,2013-11-16 12:10:00,
2013-11-16 07:13:00,51.6,48.5,30.23,NE,37,3.0,0.0,89,0.00,,,0.00,9.00,VWS V14.01,2013-11-16 12:13:00,
2013-11-16 07:15:00,52.6,49.5,30.24,NNE,32,2.0,0.0,89,0.00,,CLR,0.00,81.00,VWS V15.00,2013-11-16 12:15:00,
2013-11-16 07:18:00,51.6,48.5,30.23,NE,40,3.0,0.0,89,0.00,,,0.00,14.00,VWS V14.01,2013-11-16 12:18:00,
2013-11-16 07:20:00,52.9,49.5,30.24,NNE,14,3.0,0.0,88,0.00,,CLR,0.00,77.00,VWS V15.00,2013-11-16 12:20:00,
2013-11-16 07:23:00,51.7,48.6,30.23,NE,55,5.0,0.0,89,0.00,,,0.00,18.00,VWS V14.01,2013-11-16 12:23:00,
2013-11-16 07:25:00,53.1,49.7,30.24,NNE,24,3.0,0.0,88,0.00,,CLR,0.00,91.00,VWS V15.00,2013-11-16 12:25:00,
2013-11-16 07:28:00,51.7,48.6,30.24,NE,46,2.0,0.0,89,0.00,,,0.00,21.00,VWS V14.01,2013-11-16 12:28:00,
2013-11-16 07:30:00,53.2,49.7,30.25,NNE,24,3.0,0.0,88,0.00,,CLR,0.00,100.00,VWS V15.00,2013-11-16 12:30:00,
2013-11-16 07:33:00,51.9,48.8,30.24,NNE,33,2.0,0.0,89,0.00,,,0.00,25.00,VWS V14.01,2013-11-16 12:33:00,
2013-11-16 07:35:00,53.3,50.2,30.25,North,360,2.0,0.0,89,0.00,,CLR,0.00,107.00,VWS V15.00,2013-11-16 12:35:00,
2013-11-16 07:38:00,51.9,48.8,30.24,NNE,13,2.0,0.0,89,0.00,,,0.00,30.00,VWS V14.01,2013-11-16 12:38:00,
2013-11-16 07:40:00,53.6,50.1,30.25,North,355,2.0,0.0,88,0.00,,CLR,0.00,98.00,VWS V15.00,2013-11-16 12:40:00,
2013-11-16 07:43:00,52.0,48.9,30.24,NE,49,1.0,0.0,89,0.00,,,0.00,40.00,VWS V14.01,2013-11-16 12:43:00,
2013-11-16 07:45:00,53.7,50.2,30.26,NNE,20,1.0,0.0,88,0.00,,CLR,0.00,100.00,VWS V15.00,2013-11-16 12:45:00,
2013-11-16 07:48:00,52.1,49.0,30.24,NE,47,4.0,0.0,89,0.00,,,0.00,47.00,VWS V14.01,2013-11-16 12:48:00,
2013-11-16 07:50:00,53.8,50.3,30.26,NE,47,3.0,0.0,88,0.00,,CLR,0.00,105.00,VWS V15.00,2013-11-16 12:50:00,
2013-11-16 07:53:00,52.2,49.1,30.24,NE,49,6.0,0.0,89,0.00,,,0.00,58.00,VWS V14.01,2013-11-16 12:53:00,
2013-11-16 07:55:00,53.9,50.4,30.26,North,9,1.0,0.0,88,0.00,,CLR,0.00,107.00,VWS V15.00,2013-11-16 12:55:00,
2013-11-16 07:58:00,52.2,49.1,30.24,NE,42,5.0,0.0,89,0.00,,,0.00,62.00,VWS V14.01,2013-11-16 12:58:00,
2013-11-16 08:00:00,54.1,50.6,30.26,NNE,24,2.0,0.0,88,0.00,,CLR,0.00,104.00,VWS V15.00,2013-11-16 13:00:00,
2013-11-16 08:03:00,52.3,48.9,30.24,NNE,30,3.0,0.0,88,0.00,,,0.00,69.00,VWS V14.01,2013-11-16 13:03:00,
2013-11-16 08:05:00,54.3,50.8,30.26,North,9,4.0,0.0,88,0.00,,CLR,0.00,104.00,VWS V15.00,2013-11-16 13:05:00,
2013-11-16 08:08:00,52.4,49.0,30.24,NE,36,5.0,0.0,88,0.00,,,0.00,70.00,VWS V14.01,2013-11-16 13:08:00,
2013-11-16 08:10:00,54.5,50.7,30.26,NNE,14,2.0,0.0,87,0.00,,CLR,0.00,109.00,VWS V15.00,2013-11-16 13:10:00,
2013-11-16 08:13:00,52.6,49.5,30.24,NE,37,1.0,0.0,89,0.00,,,0.00,81.00,VWS V14.01,2013-11-16 13:13:00,
2013-11-16 08:15:00,54.7,50.9,30.26,NE,36,2.0,0.0,87,0.00,,CLR,0.00,111.00,VWS V15.00,2013-11-16 13:15:00,
2013-11-16 08:18:00,52.8,49.3,30.24,North,9,2.0,0.0,88,0.00,,,0.00,79.00,VWS V14.01,2013-11-16 13:18:00,
2013-11-16 08:20:00,54.8,51.0,30.26,NE,41,2.0,0.0,87,0.00,,CLR,0.00,121.00,VWS V15.00,2013-11-16 13:20:00,
2013-11-16 08:24:00,53.1,49.7,30.24,NNW,344,2.0,0.0,88,0.00,,,0.00,88.00,VWS V14.01,2013-11-16 13:24:00,
2013-11-16 08:25:00,54.9,51.1,30.26,NE,38,3.0,0.0,87,0.00,,CLR,0.00,132.00,VWS V15.00,2013-11-16 13:25:00,
2013-11-16 08:28:00,53.2,49.7,30.25,NNE,24,3.0,0.0,88,0.00,,,0.00,97.00,VWS V14.01,2013-11-16 13:28:00,
2013-11-16 08:30:00,55.0,51.2,30.26,North,11,3.0,0.0,87,0.00,,CLR,0.00,148.00,VWS V15.00,2013-11-16 13:30:00,
2013-11-16 08:33:00,53.3,49.8,30.25,North,9,2.0,0.0,88,0.00,,,0.00,114.00,VWS V14.01,2013-11-16 13:33:00,
2013-11-16 08:35:00,55.3,51.5,30.26,North,11,4.0,0.0,87,0.00,,CLR,0.00,162.00,VWS V15.00,2013-11-16 13:35:00,
2013-11-16 08:39:00,53.5,50.0,30.25,NNE,18,2.0,0.0,88,0.00,,,0.00,104.00,VWS V14.01,2013-11-16 13:39:00,
2013-11-16 08:40:00,55.6,51.8,30.26,NNW,347,2.0,0.0,87,0.00,,CLR,0.00,153.00,VWS V15.00,2013-11-16 13:40:00,
2013-11-16 08:44:00,53.7,50.2,30.26,North,351,2.0,0.0,88,0.00,,,0.00,100.00,VWS V14.01,2013-11-16 13:44:00,
2013-11-16 08:45:00,55.8,52.0,30.26,North,360,2.0,0.0,87,0.00,,CLR,0.00,155.00,VWS V15.00,2013-11-16 13:45:00,
2013-11-16 08:49:00,53.8,50.3,30.26,NNE,24,2.0,0.0,88,0.00,,,0.00,105.00,VWS V14.01,2013-11-16 13:49:00,
2013-11-16 08:50:00,56.0,52.2,30.26,NNE,13,2.0,0.0,87,0.00,,CLR,0.00,160.00,VWS V15.00,2013-11-16 13:50:00,
2013-11-16 08:54:00,53.9,50.4,30.26,NNE,25,2.0,0.0,88,0.00,,,0.00,107.00,VWS V14.01,2013-11-16 13:54:00,
2013-11-16 08:55:00,56.3,52.5,30.26,North,355,1.0,0.0,87,0.00,,CLR,0.00,171.00,VWS V15.00,2013-11-16 13:55:00,
2013-11-16 08:59:00,54.1,50.6,30.26,NNE,15,3.0,0.0,88,0.00,,,0.00,104.00,VWS V14.01,2013-11-16 13:59:00,
2013-11-16 09:00:00,56.6,52.8,30.26,NNE,28,2.0,0.0,87,0.00,,CLR,0.00,185.00,VWS V15.00,2013-11-16 14:00:00,
2013-11-16 09:04:00,54.3,50.8,30.26,North,5,2.0,0.0,88,0.00,,,0.00,104.00,VWS V14.01,2013-11-16 14:04:00,
2013-11-16 09:05:00,56.9,53.1,30.26,NNE,28,2.0,0.0,87,0.00,,CLR,0.00,199.00,VWS V15.00,2013-11-16 14:05:00,
2013-11-16 09:09:00,54.5,51.0,30.26,NE,34,3.0,0.0,88,0.00,,,0.00,109.00,VWS V14.01,2013-11-16 14:09:00,
2013-11-16 09:10:00,57.1,53.3,30.26,North,10,2.0,0.0,87,0.00,,CLR,0.00,199.00,VWS V15.00,2013-11-16 14:10:00,
2013-11-16 09:14:00,54.6,50.8,30.26,NE,39,2.0,0.0,87,0.00,,,0.00,111.00,VWS V14.01,2013-11-16 14:14:00,
2013-11-16 09:15:00,57.4,53.6,30.26,NNE,20,3.0,0.0,87,0.00,,CLR,0.00,206.00,VWS V15.00,2013-11-16 14:15:00,
2013-11-16 09:19:00,54.8,51.0,30.26,NNE,16,2.0,0.0,87,0.00,,,0.00,120.00,VWS V14.01,2013-11-16 14:19:00,
2013-11-16 09:20:00,57.7,53.9,30.27,NNW,344,2.0,0.0,87,0.00,,CLR,0.00,206.00,VWS V15.00,2013-11-16 14:20:00,
2013-11-16 09:24:00,54.9,51.1,30.26,NE,55,2.0,0.0,87,0.00,,,0.00,132.00,VWS V14.01,2013-11-16 14:24:00,
2013-11-16 09:25:00,57.8,54.3,30.27,NNW,338,3.0,0.0,88,0.00,,CLR,0.00,229.00,VWS V15.00,2013-11-16 14:25:00,
2013-11-16 09:29:00,55.0,51.2,30.26,North,355,2.0,0.0,87,0.00,,,0.00,142.00,VWS V14.01,2013-11-16 14:29:00,
2013-11-16 09:30:00,58.1,54.6,30.27,NNE,14,2.0,0.0,88,0.00,,CLR,0.00,260.00,VWS V15.00,2013-11-16 14:30:00,
2013-11-16 09:34:00,55.3,51.5,30.26,North,11,3.0,0.0,87,0.00,,,0.00,162.00,VWS V14.01,2013-11-16 14:34:00,
2013-11-16 09:35:00,58.5,54.7,30.27,NNW,327,1.0,0.0,87,0.00,,CLR,0.00,339.00,VWS V15.00,2013-11-16 14:35:00,
2013-11-16 09:39:00,55.6,51.8,30.26,NNE,15,2.0,0.0,87,0.00,,,0.00,153.00,VWS V14.01,2013-11-16 14:39:00,
2013-11-16 09:40:00,58.8,54.9,30.27,NNW,345,1.0,0.0,87,0.00,,CLR,0.00,320.00,VWS V15.00,2013-11-16 14:40:00,
2013-11-16 09:44:00,55.8,52.0,30.26,North,360,2.0,0.0,87,0.00,,,0.00,155.00,VWS V14.01,2013-11-16 14:44:00,
2013-11-16 09:45:00,59.1,55.2,30.27,North,349,3.0,0.0,87,0.00,,CLR,0.00,301.00,VWS V15.00,2013-11-16 14:45:00,
2013-11-16 09:49:00,56.0,52.2,30.26,North,5,4.0,0.0,87,0.00,,,0.00,160.00,VWS V14.01,2013-11-16 14:49:00,
2013-11-16 09:50:00,59.2,55.0,30.27,North,9,3.0,0.0,86,0.00,,CLR,0.00,308.00,VWS V15.00,2013-11-16 14:50:00,
2013-11-16 09:54:00,56.3,52.5,30.26,NNE,29,3.0,0.0,87,0.00,,,0.00,171.00,VWS V14.01,2013-11-16 14:54:00,
2013-11-16 09:55:00,59.2,55.0,30.27,NW,315,2.0,0.0,86,0.00,,CLR,0.00,290.00,VWS V15.00,2013-11-16 14:55:00,
2013-11-16 09:59:00,56.6,52.8,30.26,NE,35,2.0,0.0,87,0.00,,,0.00,185.00,VWS V14.01,2013-11-16 14:59:00,
2013-11-16 10:00:00,59.2,55.0,30.27,NNW,342,2.0,0.0,86,0.00,,CLR,0.00,283.00,VWS V15.00,2013-11-16 15:00:00,
2013-11-16 10:04:00,56.9,53.1,30.26,NNE,28,2.0,0.0,87,0.00,,,0.00,199.00,VWS V14.01,2013-11-16 15:04:00,
2013-11-16 10:05:00,59.4,55.2,30.27,NW,305,2.0,0.0,86,0.00,,CLR,0.00,323.00,VWS V15.00,2013-11-16 15:05:00,
2013-11-16 10:09:00,57.1,53.3,30.26,NNE,15,2.0,0.0,87,0.00,,,0.00,199.00,VWS V14.01,2013-11-16 15:09:00,
2013-11-16 10:10:00,59.8,55.3,30.27,WNW,286,0.0,0.0,85,0.00,,CLR,0.00,327.00,VWS V15.00,2013-11-16 15:10:00,
2013-11-16 10:14:00,57.4,53.6,30.26,NNE,19,3.0,0.0,87,0.00,,,0.00,206.00,VWS V14.01,2013-11-16 15:14:00,
2013-11-16 10:15:00,60.3,55.8,30.27,NNW,342,2.0,0.0,85,0.00,,CLR,0.00,313.00,VWS V15.00,2013-11-16 15:15:00,
2013-11-16 10:19:00,57.7,53.9,30.27,NNW,340,3.0,0.0,87,0.00,,,0.00,206.00,VWS V14.01,2013-11-16 15:19:00,
2013-11-16 10:20:00,60.7,55.5,30.27,NW,317,1.0,0.0,83,0.00,,CLR,0.00,311.00,VWS V15.00,2013-11-16 15:20:00,
2013-11-16 10:24:00,57.8,54.3,30.27,NNW,338,3.0,0.0,88,0.00,,,0.00,229.00,VWS V14.01,2013-11-16 15:24:00,
2013-11-16 10:25:00,60.7,55.5,30.27,North,9,3.0,0.0,83,0.00,,CLR,0.00,311.00,VWS V15.00,2013-11-16 15:25:00,
2013-11-16 10:29:00,58.1,54.6,30.27,North,355,1.0,0.0,88,0.00,,,0.00,260.00,VWS V14.01,2013-11-16 15:29:00,
2013-11-16 10:30:00,60.6,55.8,30.27,NE,46,3.0,0.0,84,0.00,,CLR,0.00,441.00,VWS V15.00,2013-11-16 15:30:00,
2013-11-16 10:35:00,58.5,54.7,30.27,NNW,327,1.0,0.0,87,0.00,,,0.00,339.00,VWS V14.01,2013-11-16 15:35:00,
2013-11-16 10:40:00,58.8,55.0,30.27,NNW,345,1.0,0.0,87,0.00,,,0.00,320.00,VWS V14.01,2013-11-16 15:40:00,
2013-11-16 10:45:00,59.1,55.2,30.27,North,351,3.0,0.0,87,0.00,,,0.00,301.00,VWS V14.01,2013-11-16 15:45:00,
2013-11-16 10:50:00,59.2,55.0,30.27,North,9,3.0,0.0,86,0.00,,,0.00,308.00,VWS V14.01,2013-11-16 15:50:00,
2013-11-16 10:55:00,59.2,55.0,30.27,NW,315,2.0,0.0,86,0.00,,,0.00,290.00,VWS V14.01,2013-11-16 15:55:00,
2013-11-16 11:00:00,59.2,55.0,30.27,NNW,342,2.0,0.0,86,0.00,,,0.00,283.00,VWS V14.01,2013-11-16 16:00:00,
2013-11-16 11:05:00,59.4,55.2,30.27,NW,305,2.0,0.0,86,0.00,,,0.00,323.00,VWS V14.01,2013-11-16 16:05:00,
2013-11-16 11:10:00,59.8,55.3,30.27,WNW,286,0.0,0.0,85,0.00,,,0.00,327.00,VWS V14.01,2013-11-16 16:10:00,
2013-11-16 11:15:00,60.3,55.8,30.27,NNW,342,2.0,0.0,85,0.00,,,0.00,313.00,VWS V14.01,2013-11-16 16:15:00,
2013-11-16 11:20:00,60.7,55.5,30.27,NW,317,1.0,0.0,83,0.00,,,0.00,311.00,VWS V14.01,2013-11-16 16:20:00,
2013-11-16 11:25:00,60.7,55.5,30.27,North,9,3.0,0.0,83,0.00,,,0.00,311.00,VWS V14.01,2013-11-16 16:25:00,
2013-11-16 11:30:00,60.6,55.8,30.27,NE,47,3.0,0.0,84,0.00,,,0.00,441.00,VWS V14.01,2013-11-16 16:30:00,
2013-11-16 11:35:00,60.8,55.9,30.26,North,355,2.0,0.0,84,0.00,,,0.00,341.00,VWS V14.01,2013-11-16 16:35:00,
2013-11-16 11:40:00,61.2,56.0,30.26,NE,46,3.0,0.0,83,0.00,,OVC007,0.00,366.00,VWS V14.01,2013-11-16 16:40:00,
2013-11-16 11:45:00,61.3,55.8,30.26,NW,324,1.0,0.0,82,0.00,,OVC007,0.00,338.00,VWS V14.01,2013-11-16 16:45:00,
2013-11-16 11:50:00,61.5,56.0,30.26,NE,54,4.0,0.0,82,0.00,,OVC007,0.00,353.00,VWS V14.01,2013-11-16 16:50:00,
2013-11-16 11:55:00,61.5,55.6,30.26,East,99,3.0,0.0,81,0.00,,OVC007,0.00,302.00,VWS V14.01,2013-11-16 16:55:00,
2013-11-16 12:00:00,61.7,55.8,30.25,NNW,341,0.0,0.0,81,0.00,,OVC007,0.00,325.00,VWS V14.01,2013-11-16 17:00:00,
2013-11-16 12:05:00,61.9,55.7,30.25,East,101,2.0,0.0,80,0.00,,OVC007,0.00,352.00,VWS V14.01,2013-11-16 17:05:00,
2013-11-16 12:10:00,62.1,55.9,30.25,NE,34,2.0,0.0,80,0.00,,OVC007,0.00,334.00,VWS V14.01,2013-11-16 17:10:00,
2013-11-16 12:15:00,62.1,55.9,30.25,NNE,16,3.0,0.0,80,0.00,,OVC007,0.00,353.00,VWS V14.01,2013-11-16 17:15:00,
2013-11-16 12:20:00,62.4,56.2,30.24,NNW,348,4.0,0.0,80,0.00,,OVC007,0.00,359.00,VWS V14.01,2013-11-16 17:20:00,
2013-11-16 12:25:00,62.5,55.9,30.24,NW,305,2.0,0.0,79,0.00,,OVC007,0.00,401.00,VWS V14.01,2013-11-16 17:25:00,
2013-11-16 12:30:00,62.8,56.2,30.24,NNE,28,5.0,0.0,79,0.00,,OVC007,0.00,315.00,VWS V14.01,2013-11-16 17:30:00,
2013-11-16 12:35:00,62.6,55.7,30.24,NNW,338,1.0,0.0,78,0.00,,OVC007,0.00,316.00,VWS V14.01,2013-11-16 17:35:00,
2013-11-16 12:40:00,62.9,55.9,30.24,NW,325,1.0,0.0,78,0.00,,OVC007,0.00,795.00,VWS V14.01,2013-11-16 17:40:00,
2013-11-16 12:45:00,63.1,55.8,30.24,North,355,0.0,0.0,77,0.00,,OVC007,0.00,309.00,VWS V14.01,2013-11-16 17:45:00,
2013-11-16 12:50:00,63.6,55.9,30.23,North,5,1.0,0.0,76,0.00,,OVC007,0.00,677.00,VWS V14.01,2013-11-16 17:50:00,
2013-11-16 12:55:00,64.2,56.1,30.23,North,355,3.0,0.0,75,0.00,,OVC007,0.00,629.00,VWS V14.01,2013-11-16 17:55:00,
2013-11-16 13:00:00,66.8,56.3,30.20,ESE,103,2.0,0.0,69,0.00,,CLR,0.00,564.00,VWS V15.00,2013-11-16 18:00:00,
2013-11-16 13:01:00,64.0,55.9,30.23,ENE,61,2.0,0.0,75,0.00,,OVC007,0.00,661.00,VWS V14.01,2013-11-16 18:01:00,
2013-11-16 13:05:00,66.9,56.4,30.20,WNW,295,3.0,0.0,69,0.00,,CLR,0.00,534.00,VWS V15.00,2013-11-16 18:05:00,
2013-11-16 13:06:00,64.4,56.7,30.23,NW,313,2.0,0.0,76,0.00,,OVC007,0.00,621.00,VWS V14.01,2013-11-16 18:06:00,
2013-11-16 13:10:00,66.4,56.3,30.20,NNW,331,2.0,0.0,70,0.00,,CLR,0.00,499.00,VWS V15.00,2013-11-16 18:10:00,
2013-11-16 13:11:00,64.7,55.9,30.23,NNW,347,1.0,0.0,73,0.00,,OVC007,0.00,592.00,VWS V14.01,2013-11-16 18:11:00,
2013-11-16 13:15:00,66.2,56.1,30.20,NE,49,3.0,0.0,70,0.00,,CLR,0.00,483.00,VWS V15.00,2013-11-16 18:15:00,
2013-11-16 13:16:00,64.9,56.0,30.22,NE,38,2.0,0.0,73,0.00,,OVC007,0.00,599.00,VWS V14.01,2013-11-16 18:16:00,
2013-11-16 13:20:00,66.5,56.4,30.20,NNE,31,3.0,0.0,70,0.00,,CLR,0.00,401.00,VWS V15.00,2013-11-16 18:20:00,
2013-11-16 13:21:00,65.2,56.3,30.22,East,88,5.0,0.0,73,0.00,,OVC007,0.00,475.00,VWS V14.01,2013-11-16 18:21:00,
2013-11-16 13:25:00,66.7,56.2,30.20,ESE,107,1.0,0.0,69,0.00,,CLR,0.00,480.00,VWS V15.00,2013-11-16 18:25:00,
2013-11-16 13:26:00,64.5,55.7,30.22,ESE,102,2.0,0.0,73,0.00,,OVC007,0.00,221.00,VWS V14.01,2013-11-16 18:26:00,
2013-11-16 13:30:00,67.2,56.7,30.19,NNE,22,3.0,0.0,69,0.00,,CLR,0.00,471.00,VWS V15.00,2013-11-16 18:30:00,
2013-11-16 13:31:00,64.7,56.6,30.22,NNW,344,3.0,0.0,75,0.00,,OVC007,0.00,594.00,VWS V14.01,2013-11-16 18:31:00,
2013-11-16 13:35:00,67.3,56.0,30.19,East,84,4.0,0.0,67,0.00,,CLR,0.00,301.00,VWS V15.00,2013-11-16 18:35:00,
2013-11-16 13:36:00,65.4,56.5,30.22,NNE,30,3.0,0.0,73,0.00,,OVC009,0.00,584.00,VWS V14.01,2013-11-16 18:36:00,
2013-11-16 13:40:00,67.1,56.2,30.19,SSE,151,1.0,0.0,68,0.00,,CLR,0.00,448.00,VWS V15.00,2013-11-16 18:40:00,
2013-11-16 13:41:00,65.8,56.5,30.22,East,92,3.0,0.0,72,0.00,,OVC009,0.00,555.00,VWS V14.01,2013-11-16 18:41:00,
2013-11-16 13:45:00,67.0,56.1,30.19,ESE,103,1.0,0.0,68,0.00,,CLR,0.00,432.00,VWS V15.00,2013-11-16 18:45:00,
2013-11-16 13:46:00,66.1,56.4,30.21,SSW,198,1.0,0.0,71,0.00,,OVC009,0.00,274.00,VWS V14.01,2013-11-16 18:46:00,
2013-11-16 13:50:00,67.2,56.3,30.19,East,90,3.0,0.0,68,0.00,,CLR,0.00,251.00,VWS V15.00,2013-11-16 18:50:00,
2013-11-16 13:51:00,66.5,56.4,30.21,East,85,1.0,0.0,70,0.00,,OVC009,0.00,557.00,VWS V14.01,2013-11-16 18:51:00,
2013-11-16 13:55:00,67.6,56.3,30.19,East,88,2.0,0.0,67,0.00,,CLR,0.00,396.00,VWS V15.00,2013-11-16 18:55:00,
2013-11-16 13:56:00,66.8,56.7,30.20,NNW,342,4.0,0.0,70,0.00,,OVC009,0.00,563.00,VWS V14.01,2013-11-16 18:56:00,
2013-11-16 14:00:00,67.6,55.8,30.19,ENE,65,2.0,0.0,66,0.00,,CLR,0.00,109.00,VWS V15.00,2013-11-16 19:00:00,
2013-11-16 14:01:00,66.8,56.7,30.20,WNW,297,2.0,0.0,70,0.00,,OVC009,0.00,550.00,VWS V14.01,2013-11-16 19:01:00,
2013-11-16 14:05:00,67.6,56.3,30.19,ENE,70,1.0,0.0,67,0.00,,CLR,0.00,385.00,VWS V15.00,2013-11-16 19:05:00,
2013-11-16 14:06:00,66.8,56.3,30.20,North,360,4.0,0.0,69,0.00,,OVC009,0.00,534.00,VWS V14.01,2013-11-16 19:06:00,
2013-11-16 14:10:00,68.0,56.2,30.19,NE,38,1.0,0.0,66,0.00,,CLR,0.00,371.00,VWS V15.00,2013-11-16 19:10:00,
2013-11-16 14:11:00,66.2,56.1,30.20,NW,323,1.0,0.0,70,0.00,,OVC009,0.00,190.00,VWS V14.01,2013-11-16 19:11:00,
2013-11-16 14:15:00,68.0,56.7,30.18,NNE,29,4.0,0.0,67,0.00,,CLR,0.00,338.00,VWS V15.00,2013-11-16 19:15:00,
2013-11-16 14:16:00,66.4,56.7,30.20,NNW,347,2.0,0.0,71,0.00,,OVC009,0.00,483.00,VWS V14.01,2013-11-16 19:16:00,
2013-11-16 14:20:00,68.0,56.7,30.18,NNW,332,2.0,0.0,67,0.00,,CLR,0.00,309.00,VWS V15.00,2013-11-16 19:20:00,
2013-11-16 14:21:00,66.6,56.5,30.20,ENE,62,2.0,0.0,70,0.00,,OVC009,0.00,464.00,VWS V14.01,2013-11-16 19:21:00,
2013-11-16 14:25:00,67.8,56.5,30.18,WNW,290,2.0,0.0,67,0.00,,CLR,0.00,301.00,VWS V15.00,2013-11-16 19:25:00,
2013-11-16 14:26:00,66.9,56.4,30.20,East,92,6.0,0.0,69,0.00,,OVC009,0.00,483.00,VWS V14.01,2013-11-16 19:26:00,
2013-11-16 14:30:00,67.7,56.4,30.18,NE,46,3.0,0.0,67,0.00,,CLR,0.00,267.00,VWS V15.00,2013-11-16 19:30:00,
2013-11-16 14:31:00,67.3,56.4,30.19,East,81,4.0,0.0,68,0.00,,OVC009,0.00,464.00,VWS V14.01,2013-11-16 19:31:00,
2013-11-16 14:35:00,67.7,56.4,30.18,NNE,24,1.0,0.0,67,0.00,,CLR,0.00,246.00,VWS V15.00,2013-11-16 19:35:00,
2013-11-16 14:36:00,67.3,56.4,30.19,ESE,102,2.0,0.0,68,0.00,,OVC011,0.00,448.00,VWS V14.01,2013-11-16 19:36:00,
2013-11-16 14:40:00,67.8,56.5,30.18,NNW,342,3.0,0.0,67,0.00,,CLR,0.00,236.00,VWS V15.00,2013-11-16 19:40:00,
2013-11-16 14:41:00,66.9,56.0,30.19,South,179,1.0,0.0,68,0.00,,OVC011,0.00,102.00,VWS V14.01,2013-11-16 19:41:00,
2013-11-16 14:45:00,67.7,56.4,30.18,NNE,20,2.0,0.0,67,0.00,,CLR,0.00,218.00,VWS V15.00,2013-11-16 19:45:00,
2013-11-16 14:46:00,67.0,56.1,30.19,ESE,111,1.0,0.0,68,0.00,,OVC011,0.00,432.00,VWS V14.01,2013-11-16 19:46:00,
2013-11-16 14:50:00,67.9,56.1,30.18,ENE,74,4.0,0.0,66,0.00,,CLR,0.00,200.00,VWS V15.00,2013-11-16 19:50:00,
2013-11-16 14:51:00,67.3,56.4,30.19,ESE,107,1.0,0.0,68,0.00,,OVC011,0.00,406.00,VWS V14.01,2013-11-16 19:51:00,
2013-11-16 14:55:00,67.8,56.5,30.18,East,98,3.0,0.0,67,0.00,,CLR,0.00,179.00,VWS V15.00,2013-11-16 19:55:00,
2013-11-16 14:56:00,67.9,56.5,30.19,ESE,109,4.0,0.0,67,0.00,,OVC011,0.00,383.00,VWS V14.01,2013-11-16 19:56:00,
2013-11-16 15:00:00,67.7,56.4,30.19,NE,49,1.0,0.0,67,0.00,,CLR,0.00,149.00,VWS V15.00,2013-11-16 20:00:00,
2013-11-16 15:02:00,67.5,55.8,30.19,ENE,70,1.0,0.0,66,0.00,,OVC011,0.00,174.00,VWS V14.01,2013-11-16 20:02:00,
2013-11-16 15:05:00,67.8,56.0,30.19,NNW,340,0.0,0.0,66,0.00,,CLR,0.00,141.00,VWS V15.00,2013-11-16 20:05:00,
2013-11-16 15:07:00,67.7,56.4,30.19,East,79,3.0,0.0,67,0.00,,OVC011,0.00,383.00,VWS V14.01,2013-11-16 20:07:00,
2013-11-16 15:10:00,68.3,56.1,30.19,NNW,342,0.0,0.0,65,0.00,,CLR,0.00,128.00,VWS V15.00,2013-11-16 20:10:00,
2013-11-16 15:12:00,68.1,56.3,30.19,ENE,71,3.0,0.0,66,0.00,,OVC011,0.00,366.00,VWS V14.01,2013-11-16 20:12:00,
2013-11-16 15:15:00,68.5,56.3,30.19,North,5,2.0,0.0,65,0.00,,CLR,0.00,111.00,VWS V15.00,2013-11-16 20:15:00,
2013-11-16 15:17:00,68.0,57.1,30.18,North,11,2.0,0.0,68,0.00,,OVC011,0.00,325.00,VWS V14.01,2013-11-16 20:17:00,
2013-11-16 15:20:00,68.4,56.2,30.19,NNE,28,2.0,0.0,65,0.00,,CLR,0.00,93.00,VWS V15.00,2013-11-16 20:20:00,
2013-11-16 15:22:00,67.9,56.5,30.18,NE,47,4.0,0.0,67,0.00,,OVC011,0.00,287.00,VWS V14.01,2013-11-16 20:22:00,
2013-11-16 15:25:00,68.1,55.9,30.19,NNW,344,2.0,0.0,65,0.00,,CLR,0.00,81.00,VWS V15.00,2013-11-16 20:25:00,
2013-11-16 15:27:00,67.7,56.4,30.18,North,5,3.0,0.0,67,0.00,,OVC011,0.00,278.00,VWS V14.01,2013-11-16 20:27:00,
2013-11-16 15:32:00,67.7,56.4,30.18,North,360,2.0,0.0,67,0.00,,OVC011,0.00,255.00,VWS V14.01,2013-11-16 20:32:00,
2013-11-16 15:35:00,67.5,55.8,30.19,NNE,21,1.0,0.0,66,0.00,,CLR,0.00,53.00,VWS V15.00,2013-11-16 20:35:00,
2013-11-16 15:37:00,67.8,56.5,30.18,NNW,336,2.0,0.0,67,0.00,,SCT015,0.00,241.00,VWS V14.01,2013-11-16 20:37:00,
2013-11-16 15:40:00,67.4,55.7,30.19,North,5,1.0,0.0,66,0.00,,CLR,0.00,42.00,VWS V15.00,2013-11-16 20:40:00,
2013-11-16 15:42:00,67.7,56.4,30.18,NNE,17,2.0,0.0,67,0.00,,SCT015,0.00,229.00,VWS V14.01,2013-11-16 20:42:00,
2013-11-16 15:45:00,67.2,55.5,30.19,North,9,1.0,0.0,66,0.00,,CLR,0.00,26.00,VWS V15.00,2013-11-16 20:45:00,
2013-11-16 15:47:00,67.8,56.5,30.18,NE,43,3.0,0.0,67,0.00,,SCT015,0.00,213.00,VWS V14.01,2013-11-16 20:47:00,
2013-11-16 15:50:00,66.6,55.3,30.19,NE,34,2.0,0.0,67,0.00,,CLR,0.00,23.00,VWS V15.00,2013-11-16 20:50:00,
2013-11-16 15:52:00,67.9,56.1,30.19,East,99,3.0,0.0,66,0.00,,SCT015,0.00,192.00,VWS V14.01,2013-11-16 20:52:00,
2013-11-16 15:55:00,65.9,55.8,30.19,NNE,32,2.0,0.0,70,0.00,,CLR,0.00,18.00,VWS V15.00,2013-11-16 20:55:00,
2013-11-16 15:57:00,67.8,56.5,30.18,NE,46,3.0,0.0,67,0.00,,SCT015,0.00,169.00,VWS V14.01,2013-11-16 20:57:00,
2013-11-16 16:02:00,67.8,56.0,30.19,NE,36,2.0,0.0,66,0.00,,SCT015,0.00,144.00,VWS V14.01,2013-11-16 21:02:00,
2013-11-16 16:05:00,64.8,55.6,30.19,NNE,20,0.0,0.0,72,0.00,,CLR,0.00,11.00,VWS V15.00,2013-11-16 21:05:00,
2013-11-16 16:07:00,68.1,56.3,30.19,NNW,327,1.0,0.0,66,0.00,,SCT015,0.00,137.00,VWS V14.01,2013-11-16 21:07:00,
2013-11-16 16:10:00,64.2,55.0,30.19,North,5,2.0,0.0,72,0.00,,CLR,0.00,7.00,VWS V15.00,2013-11-16 21:10:00,
2013-11-16 16:12:00,68.4,56.2,30.19,NNW,338,0.0,0.0,65,0.00,,SCT015,0.00,120.00,VWS V14.01,2013-11-16 21:12:00,
2013-11-16 16:15:00,63.4,54.6,30.19,NNE,12,2.0,0.0,73,0.00,,CLR,0.00,0.00,VWS V15.00,2013-11-16 21:15:00,
2013-11-16 16:17:00,68.5,55.9,30.19,North,5,1.0,0.0,64,0.00,,SCT015,0.00,105.00,VWS V14.01,2013-11-16 21:17:00,
2013-11-16 16:20:00,62.7,54.3,30.19,NNE,22,1.0,0.0,74,0.00,,CLR,0.00,0.00,VWS V15.00,2013-11-16 21:20:00,
2013-11-16 16:22:00,68.2,56.0,30.19,North,10,1.0,0.0,65,0.00,,SCT015,0.00,86.00,VWS V14.01,2013-11-16 21:22:00,
2013-11-16 16:25:00,62.3,55.4,30.19,North,5,3.0,0.0,78,0.00,,CLR,0.00,0.00,VWS V15.00,2013-11-16 21:25:00,
2013-11-16 16:27:00,67.9,55.7,30.19,NNE,17,2.0,0.0,65,0.00,,SCT015,0.00,72.00,VWS V14.01,2013-11-16 21:27:00,
2013-11-16 16:30:00,62.2,54.9,30.18,North,9,2.0,0.0,77,0.00,,CLR,0.00,0.00,VWS V15.00,2013-11-16 21:30:00,
2013-11-16 16:32:00,67.6,55.8,30.19,NNE,26,1.0,0.0,66,0.00,,SCT015,0.00,60.00,VWS V14.01,2013-11-16 21:32:00,
2013-11-16 16:35:00,61.7,54.8,30.18,North,355,1.0,0.0,78,0.00,,CLR,0.00,0.00,VWS V15.00,2013-11-16 21:35:00,
2013-11-16 16:37:00,67.4,55.7,30.19,North,5,1.0,0.0,66,0.00,,CLR,0.00,47.00,VWS V14.01,2013-11-16 21:37:00,
2013-11-16 16:40:00,61.1,54.5,30.19,North,360,1.0,0.0,79,0.00,,CLR,0.00,0.00,VWS V15.00,2013-11-16 21:40:00,
2013-11-16 16:42:00,67.3,55.6,30.19,North,5,1.0,0.0,66,0.00,,CLR,0.00,35.00,VWS V14.01,2013-11-16 21:42:00,
2013-11-16 16:45:00,60.6,54.1,30.18,NNW,337,2.0,0.0,79,0.00,,CLR,0.00,0.00,VWS V15.00,2013-11-16 21:45:00,
2013-11-16 16:47:00,66.9,55.6,30.19,NNE,30,2.0,0.0,67,0.00,,CLR,0.00,25.00,VWS V14.01,2013-11-16 21:47:00,
2013-11-16 16:50:00,60.3,54.5,30.18,North,351,0.0,0.0,81,0.00,,CLR,0.00,0.00,VWS V15.00,2013-11-16 21:50:00,
2013-11-16 16:52:00,66.2,55.7,30.19,NNE,32,1.0,0.0,69,0.00,,CLR,0.00,21.00,VWS V14.01,2013-11-16 21:52:00,
2013-11-16 16:55:00,60.1,54.6,30.18,NNW,339,0.0,0.0,82,0.00,,CLR,0.00,0.00,VWS V15.00,2013-11-16 21:55:00,
2013-11-16 16:57:00,65.6,55.6,30.19,NNE,31,1.0,0.0,70,0.00,,CLR,0.00,12.00,VWS V14.01,2013-11-16 21:57:00,
2013-11-16 17:00:00,59.8,54.3,30.19,NNW,339,0.0,0.0,82,0.00,,CLR,0.00,0.00,VWS V15.00,2013-11-16 22:00:00,
2013-11-16 17:02:00,65.1,55.1,30.19,NNE,20,1.0,0.0,70,0.00,,CLR,0.00,11.00,VWS V14.01,2013-11-16 22:02:00,
2013-11-16 17:05:00,59.4,53.9,30.19,NNW,339,1.0,0.0,82,0.00,,CLR,0.00,0.00,VWS V15.00,2013-11-16 22:05:00,
2013-11-16 17:07:00,64.5,54.9,30.19,NNE,17,1.0,0.0,71,0.00,,CLR,0.00,9.00,VWS V14.01,2013-11-16 22:07:00,
2013-11-16 17:10:00,58.9,54.1,30.19,NNE,19,3.0,0.0,84,0.00,,CLR,0.00,0.00,VWS V15.00,2013-11-16 22:10:00,
2013-11-16 17:12:00,63.8,55.0,30.19,NNW,347,0.0,0.0,73,0.00,,CLR,0.00,0.00,VWS V14.01,2013-11-16 22:12:00,
2013-11-16 17:15:00,59.1,54.6,30.19,NNE,19,2.0,0.0,85,0.00,,CLR,0.00,0.00,VWS V15.00,2013-11-16 22:15:00,
2013-11-16 17:17:00,63.0,54.6,30.19,North,9,1.0,0.0,74,0.00,,CLR,0.00,0.00,VWS V14.01,2013-11-16 22:17:00,
2013-11-16 17:20:00,59.3,54.5,30.19,NNW,344,2.0,0.0,84,0.00,,CLR,0.00,0.00,VWS V15.00,2013-11-16 22:20:00,
2013-11-16 17:22:00,62.3,55.0,30.19,NNE,26,3.0,0.0,77,0.00,,CLR,0.00,0.00,VWS V14.01,2013-11-16 22:22:00,
2013-11-16 17:25:00,59.3,54.5,30.19,North,355,1.0,0.0,84,0.00,,CLR,0.00,0.00,VWS V15.00,2013-11-16 22:25:00,
2013-11-16 17:27:00,62.3,55.0,30.18,NNE,17,2.0,0.0,77,0.00,,CLR,0.00,0.00,VWS V14.01,2013-11-16 22:27:00,
2013-11-16 17:30:00,59.1,54.6,30.19,North,5,1.0,0.0,85,0.00,,CLR,0.00,0.00,VWS V15.00,2013-11-16 22:30:00,
2013-11-16 17:32:00,61.9,54.6,30.18,North,360,2.0,0.0,77,0.00,,CLR,0.00,0.00,VWS V14.01,2013-11-16 22:32:00,
2013-11-16 17:35:00,59.0,54.5,30.19,North,355,3.0,0.0,85,0.00,,CLR,0.00,0.00,VWS V15.00,2013-11-16 22:35:00,
2013-11-16 17:37:00,61.3,54.4,30.18,North,5,2.0,0.0,78,0.00,,CLR,0.00,0.00,VWS V14.01,2013-11-16 22:37:00,
2013-11-16 17:40:00,59.0,54.8,30.19,North,5,2.0,0.0,86,0.00,,CLR,0.00,0.00,VWS V15.00,2013-11-16 22:40:00,
2013-11-16 17:42:00,60.9,54.3,30.19,North,360,0.0,0.0,79,0.00,,CLR,0.00,0.00,VWS V14.01,2013-11-16 22:42:00,
2013-11-16 17:45:00,59.2,54.7,30.19,North,355,2.0,0.0,85,0.00,,CLR,0.00,0.00,VWS V15.00,2013-11-16 22:45:00,
2013-11-16 17:47:00,60.4,54.2,30.19,North,355,1.0,0.0,80,0.00,,CLR,0.00,0.00,VWS V14.01,2013-11-16 22:47:00,
2013-11-16 17:50:00,59.2,54.7,30.20,NNW,338,3.0,0.0,85,0.00,,CLR,0.00,0.00,VWS V15.00,2013-11-16 22:50:00,
2013-11-16 17:52:00,60.2,54.4,30.18,NNW,339,0.0,0.0,81,0.00,,CLR,0.00,0.00,VWS V14.01,2013-11-16 22:52:00,
2013-11-16 17:57:00,59.9,54.4,30.19,NNW,339,1.0,0.0,82,0.00,,CLR,0.00,0.00,VWS V14.01,2013-11-16 22:57:00,
2013-11-16 18:00:00,59.3,55.1,30.20,North,360,4.0,0.0,86,0.00,,CLR,0.00,0.00,VWS V15.00,2013-11-16 23:00:00,
2013-11-16 18:02:00,59.6,54.1,30.19,NNW,339,1.0,0.0,82,0.00,,CLR,0.00,0.00,VWS V14.01,2013-11-16 23:02:00,
2013-11-16 18:05:00,59.3,54.8,30.20,NNE,19,3.0,0.0,85,0.00,,CLR,0.00,0.00,VWS V15.00,2013-11-16 23:05:00,
2013-11-16 18:07:00,59.1,53.6,30.19,NNW,343,1.0,0.0,82,0.00,,CLR,0.00,0.00,VWS V14.01,2013-11-16 23:07:00,
2013-11-16 18:10:00,59.1,54.6,30.20,North,355,2.0,0.0,85,0.00,,CLR,0.00,0.00,VWS V15.00,2013-11-16 23:10:00,
2013-11-16 18:12:00,59.0,54.5,30.19,NNE,20,3.0,0.0,85,0.00,,CLR,0.00,0.00,VWS V14.01,2013-11-16 23:12:00,
2013-11-16 18:15:00,58.9,54.7,30.21,North,350,4.0,0.0,86,0.00,,CLR,0.00,0.00,VWS V15.00,2013-11-16 23:15:00,
2013-11-16 18:17:00,59.3,54.8,30.19,North,360,2.0,0.0,85,0.00,,CLR,0.00,0.00,VWS V14.01,2013-11-16 23:17:00,
2013-11-16 18:20:00,58.8,54.6,30.21,North,355,3.0,0.0,86,0.00,,CLR,0.00,0.00,VWS V15.00,2013-11-16 23:20:00,
2013-11-16 18:22:00,59.4,54.6,30.19,NNW,348,1.0,0.0,84,0.00,,CLR,0.00,0.00,VWS V14.01,2013-11-16 23:22:00,
2013-11-16 18:25:00,58.6,54.4,30.22,North,10,3.0,0.0,86,0.00,,CLR,0.00,0.00,VWS V15.00,2013-11-16 23:25:00,
2013-11-16 18:27:00,59.3,54.5,30.19,NNW,347,2.0,0.0,84,0.00,,CLR,0.00,0.00,VWS V14.01,2013-11-16 23:27:00,
2013-11-16 18:30:00,58.4,54.5,30.22,NNE,17,4.0,0.0,87,0.00,,CLR,0.00,0.00,VWS V15.00,2013-11-16 23:30:00,
2013-11-16 18:32:00,59.1,54.6,30.19,North,5,3.0,0.0,85,0.00,,CLR,0.00,0.00,VWS V14.01,2013-11-16 23:32:00,
2013-11-16 18:35:00,58.3,54.5,30.21,NNE,15,2.0,0.0,87,0.00,,CLR,0.00,0.00,VWS V15.00,2013-11-16 23:35:00,
2013-11-16 18:37:00,59.0,54.8,30.19,North,360,2.0,0.0,86,0.00,,CLR,0.00,0.00,VWS V14.01,2013-11-16 23:37:00,
2013-11-16 18:40:00,58.3,54.5,30.22,NNW,347,2.0,0.0,87,0.00,,CLR,0.00,0.00,VWS V15.00,2013-11-16 23:40:00,
2013-11-16 18:42:00,59.1,54.9,30.19,North,360,3.0,0.0,86,0.00,,CLR,0.00,0.00,VWS V14.01,2013-11-16 23:42:00,
2013-11-16 18:45:00,58.4,54.9,30.22,NNW,348,1.0,0.0,88,0.00,,CLR,0.00,0.00,VWS V15.00,2013-11-16 23:45:00,
2013-11-16 18:47:00,59.2,54.7,30.20,North,10,3.0,0.0,85,0.00,,CLR,0.00,0.00,VWS V14.01,2013-11-16 23:47:00,
2013-11-16 18:50:00,58.6,54.8,30.22,NNW,348,1.0,0.0,87,0.00,,CLR,0.00,0.00,VWS V15.00,2013-11-16 23:50:00,
2013-11-16 18:52:00,59.2,54.7,30.20,North,9,4.0,0.0,85,0.00,,CLR,0.00,0.00,VWS V14.01,2013-11-16 23:52:00,
2013-11-16 18:55:00,58.6,54.8,30.22,NNW,344,0.0,0.0,87,0.00,,CLR,0.00,0.00,VWS V15.00,2013-11-16 23:55:00,
2013-11-16 18:57:00,59.2,54.7,30.20,North,355,4.0,0.0,85,0.00,,CLR,0.00,0.00,VWS V14.01,2013-11-16 23:57:00,
2013-11-16 19:00:00,58.6,54.8,30.22,NNW,342,0.0,0.0,87,0.00,,CLR,0.00,0.00,VWS V15.00,2013-11-17 00:00:00,
2013-11-16 19:02:00,59.3,54.8,30.20,NNE,23,4.0,0.0,85,0.00,,CLR,0.00,0.00,VWS V14.01,2013-11-17 00:02:00,
2013-11-16 19:05:00,58.5,54.7,30.22,NNW,342,1.0,0.0,87,0.00,,CLR,0.00,0.00,VWS V15.00,2013-11-17 00:05:00,
2013-11-16 19:07:00,59.2,54.7,30.20,NNE,12,2.0,0.0,85,0.00,,CLR,0.00,0.00,VWS V14.01,2013-11-17 00:07:00,
2013-11-16 19:10:00,58.5,54.7,30.22,NNE,15,2.0,0.0,87,0.00,,CLR,0.00,0.00,VWS V15.00,2013-11-17 00:10:00,
2013-11-16 19:12:00,58.9,54.7,30.21,North,360,3.0,0.0,86,0.00,,CLR,0.00,0.00,VWS V14.01,2013-11-17 00:12:00,
2013-11-16 19:15:00,58.4,54.5,30.22,NNW,338,1.0,0.0,87,0.00,,CLR,0.00,0.00,VWS V15.00,2013-11-17 00:15:00,
2013-11-16 19:17:00,58.8,54.6,30.21,NNE,17,3.0,0.0,86,0.00,,CLR,0.00,0.00,VWS V14.01,2013-11-17 00:17:00,
2013-11-16 19:20:00,58.2,54.3,30.22,North,360,2.0,0.0,87,0.00,,CLR,0.00,0.00,VWS V15.00,2013-11-17 00:20:00,
2013-11-16 19:23:00,58.7,54.5,30.21,North,355,2.0,0.0,86,0.00,,CLR,0.00,0.00,VWS V14.01,2013-11-17 00:23:00,
2013-11-16 19:28:00,58.4,54.2,30.22,NNE,15,4.0,0.0,86,0.00,,CLR,0.00,0.00,VWS V14.01,2013-11-17 00:28:00,
2013-11-16 19:30:00,57.9,54.4,30.22,NNW,346,2.0,0.0,88,0.00,,CLR,0.00,0.00,VWS V15.00,2013-11-17 00:30:00,
2013-11-16 19:33:00,58.4,54.5,30.22,North,5,2.0,0.0,87,0.00,,CLR,0.00,0.00,VWS V14.01,2013-11-17 00:33:00,
2013-11-16 19:35:00,57.8,54.3,30.23,NNW,343,2.0,0.0,88,0.00,,CLR,0.00,0.00,VWS V15.00,2013-11-17 00:35:00,
2013-11-16 19:38:00,58.3,54.5,30.22,NNE,24,3.0,0.0,87,0.00,,CLR,0.00,0.00,VWS V14.01,2013-11-17 00:38:00,
2013-11-16 19:40:00,57.6,54.1,30.23,North,9,3.0,0.0,88,0.00,,CLR,0.00,0.00,VWS V15.00,2013-11-17 00:40:00,
2013-11-16 19:43:00,58.3,54.8,30.22,NNW,341,1.0,0.0,88,0.00,,CLR,0.00,0.00,VWS V14.01,2013-11-17 00:43:00,
2013-11-16 19:45:00,57.5,54.0,30.23,NE,40,2.0,0.0,88,0.00,,CLR,0.00,0.00,VWS V15.00,2013-11-17 00:45:00,
2013-11-16 19:48:00,58.5,55.0,30.22,NNE,16,3.0,0.0,88,0.00,,CLR,0.00,0.00,VWS V14.01,2013-11-17 00:48:00,
2013-11-16 19:50:00,57.3,54.1,30.22,NNE,30,2.0,0.0,89,0.00,,CLR,0.00,0.00,VWS V15.00,2013-11-17 00:50:00,
2013-11-16 19:53:00,58.6,54.8,30.22,NNW,347,1.0,0.0,87,0.00,,CLR,0.00,0.00,VWS V14.01,2013-11-17 00:53:00,
2013-11-16 19:55:00,57.1,53.9,30.23,NNE,20,3.0,0.0,89,0.00,,CLR,0.00,0.00,VWS V15.00,2013-11-17 00:55:00,
2013-11-16 19:58:00,58.6,54.8,30.22,NNW,344,0.0,0.0,87,0.00,,CLR,0.00,0.00,VWS V14.01,2013-11-17 00:58:00,
2013-11-16 20:00:00,56.9,54.0,30.23,NNE,31,4.0,0.0,90,0.00,,CLR,0.00,0.00,VWS V15.00,2013-11-17 01:00:00,
2013-11-16 20:03:00,58.5,54.7,30.22,NNW,342,1.0,0.0,87,0.00,,CLR,0.00,0.00,VWS V14.01,2013-11-17 01:03:00,
2013-11-16 20:05:00,56.8,53.9,30.22,NNE,28,4.0,0.0,90,0.00,,CLR,0.00,0.00,VWS V15.00,2013-11-17 01:05:00,
2013-11-16 20:08:00,58.5,54.7,30.22,NW,325,1.0,0.0,87,0.00,,CLR,0.00,0.00,VWS V14.01,2013-11-17 01:08:00,
2013-11-16 20:10:00,56.8,53.9,30.22,North,351,2.0,0.0,90,0.00,,CLR,0.00,0.00,VWS V15.00,2013-11-17 01:10:00,
2013-11-16 20:13:00,58.4,54.5,30.22,NW,323,1.0,0.0,87,0.00,,CLR,0.00,0.00,VWS V14.01,2013-11-17 01:13:00,
2013-11-16 20:15:00,56.8,53.9,30.23,North,360,3.0,0.0,90,0.00,,CLR,0.00,0.00,VWS V15.00,2013-11-17 01:15:00,
2013-11-16 20:18:00,58.2,54.4,30.22,North,350,2.0,0.0,87,0.00,,CLR,0.00,0.00,VWS V14.01,2013-11-17 01:18:00,
2013-11-16 20:20:00,56.7,53.8,30.23,North,9,3.0,0.0,90,0.00,,CLR,0.00,0.00,VWS V15.00,2013-11-17 01:20:00,
2013-11-16 20:23:00,58.0,54.5,30.22,NNW,348,2.0,0.0,88,0.00,,CLR,0.00,0.00,VWS V14.01,2013-11-17 01:23:00,
2013-11-16 20:25:00,56.5,53.6,30.23,NNE,26,5.0,0.0,90,0.00,,CLR,0.00,0.00,VWS V15.00,2013-11-17 01:25:00,
2013-11-16 20:28:00,58.0,54.5,30.23,North,350,4.0,0.0,88,0.00,,CLR,0.00,0.00,VWS V14.01,2013-11-17 01:28:00,
2013-11-16 20:30:00,56.4,53.5,30.23,North,360,2.0,0.0,90,0.00,,CLR,0.00,0.00,VWS V15.00,2013-11-17 01:30:00,
2013-11-16 20:33:00,57.9,54.4,30.23,NNW,346,2.0,0.0,88,0.00,,CLR,0.00,0.00,VWS V14.01,2013-11-17 01:33:00,
2013-11-16 20:35:00,56.4,53.8,30.23,North,355,5.0,0.0,91,0.00,,CLR,0.00,0.00,VWS V15.00,2013-11-17 01:35:00,
2013-11-16 20:38:00,57.7,54.2,30.23,North,5,3.0,0.0,88,0.00,,CLR,0.00,0.00,VWS V14.01,2013-11-17 01:38:00,
2013-11-16 20:40:00,56.4,53.8,30.23,North,360,3.0,0.0,91,0.00,,CLR,0.00,0.00,VWS V15.00,2013-11-17 01:40:00,
2013-11-16 20:43:00,57.6,54.1,30.23,NNE,24,3.0,0.0,88,0.00,,CLR,0.00,0.00,VWS V14.01,2013-11-17 01:43:00,
2013-11-16 20:45:00,56.4,53.5,30.23,North,11,2.0,0.0,90,0.00,,CLR,0.00,0.00,VWS V15.00,2013-11-17 01:45:00,
2013-11-16 20:48:00,57.4,54.2,30.22,NE,38,3.0,0.0,89,0.00,,CLR,0.00,0.00,VWS V14.01,2013-11-17 01:48:00,
2013-11-16 20:50:00,56.2,53.3,30.23,NNE,16,3.0,0.0,90,0.00,,CLR,0.00,0.00,VWS V15.00,2013-11-17 01:50:00,
2013-11-16 20:53:00,57.2,54.0,30.22,NNE,21,2.0,0.0,89,0.00,,CLR,0.00,0.00,VWS V14.01,2013-11-17 01:53:00,
2013-11-16 20:55:00,56.1,53.5,30.23,NE,35,5.0,0.0,91,0.00,,CLR,0.00,0.00,VWS V15.00,2013-11-17 01:55:00,
2013-11-16 20:58:00,56.9,53.7,30.23,North,355,3.0,0.0,89,0.00,,CLR,0.00,0.00,VWS V14.01,2013-11-17 01:58:00,
2013-11-16 21:00:00,56.0,53.4,30.22,NNE,27,3.0,0.0,91,0.00,,CLR,0.00,0.00,VWS V15.00,2013-11-17 02:00:00,
2013-11-16 21:03:00,56.8,53.9,30.22,NNE,17,4.0,0.0,90,0.00,,CLR,0.00,0.00,VWS V14.01,2013-11-17 02:03:00,
2013-11-16 21:05:00,55.9,53.3,30.22,NE,38,4.0,0.0,91,0.00,,CLR,0.00,0.00,VWS V15.00,2013-11-17 02:05:00,
2013-11-16 21:08:00,56.8,53.9,30.22,North,360,3.0,0.0,90,0.00,,CLR,0.00,0.00,VWS V14.01,2013-11-17 02:08:00,
2013-11-16 21:10:00,55.8,53.2,30.22,NE,38,3.0,0.0,91,0.00,,CLR,0.00,0.00,VWS V15.00,2013-11-17 02:10:00,
2013-11-16 21:13:00,56.8,53.9,30.23,North,11,1.0,0.0,90,0.00,,CLR,0.00,0.00,VWS V14.01,2013-11-17 02:13:00,
2013-11-16 21:15:00,55.7,53.1,30.22,NNE,26,3.0,0.0,91,0.00,,CLR,0.00,0.00,VWS V15.00,2013-11-17 02:15:00,
2013-11-16 21:18:00,56.7,53.8,30.23,NNE,13,3.0,0.0,90,0.00,,CLR,0.00,0.00,VWS V14.01,2013-11-17 02:18:00,
2013-11-16 21:20:00,55.5,53.2,30.22,NNE,31,5.0,0.0,92,0.00,,CLR,0.00,0.00,VWS V15.00,2013-11-17 02:20:00,
2013-11-16 21:23:00,56.6,53.7,30.23,NNW,347,3.0,0.0,90,0.00,,CLR,0.00,0.00,VWS V14.01,2013-11-17 02:23:00,
2013-11-16 21:25:00,55.6,53.3,30.22,NNE,30,4.0,0.0,92,0.00,,CLR,0.00,0.00,VWS V15.00,2013-11-17 02:25:00,
2013-11-16 21:28:00,56.4,53.5,30.23,NNE,26,3.0,0.0,90,0.00,,CLR,0.00,0.00,VWS V14.01,2013-11-17 02:28:00,
2013-11-16 21:30:00,55.5,52.9,30.22,ENE,68,4.0,0.0,91,0.00,,CLR,0.00,0.00,VWS V15.00,2013-11-17 02:30:00,
2013-11-16 21:33:00,56.4,53.8,30.23,NNE,12,5.0,0.0,91,0.00,,CLR,0.00,0.00,VWS V14.01,2013-11-17 02:33:00,
2013-11-16 21:35:00,55.4,53.1,30.22,NE,45,3.0,0.0,92,0.00,,CLR,0.00,0.00,VWS V15.00,2013-11-17 02:35:00,
2013-11-16 21:38:00,56.4,53.8,30.23,North,11,4.0,0.0,91,0.00,,OVC055,0.00,0.00,VWS V14.01,2013-11-17 02:38:00,
2013-11-16 21:40:00,55.3,53.0,30.21,NE,49,3.0,0.0,92,0.00,,CLR,0.00,0.00,VWS V15.00,2013-11-17 02:40:00,
2013-11-16 21:43:00,56.4,53.5,30.23,North,10,3.0,0.0,90,0.00,,OVC055,0.00,0.00,VWS V14.01,2013-11-17 02:43:00,
2013-11-16 21:45:00,55.1,52.8,30.21,NE,44,4.0,0.0,92,0.00,,CLR,0.00,0.00,VWS V15.00,2013-11-17 02:45:00,
2013-11-16 21:48:00,56.2,53.3,30.23,North,5,2.0,0.0,90,0.00,,OVC055,0.00,0.00,VWS V14.01,2013-11-17 02:48:00,
2013-11-16 21:50:00,55.0,52.7,30.21,NE,45,2.0,0.0,92,0.00,,CLR,0.00,0.00,VWS V15.00,2013-11-17 02:50:00,
2013-11-16 21:53:00,56.1,53.5,30.23,NNE,24,4.0,0.0,91,0.00,,OVC055,0.00,0.00,VWS V14.01,2013-11-17 02:53:00,
2013-11-16 21:55:00,55.0,53.0,30.21,NE,55,1.0,0.0,93,0.00,,CLR,0.00,0.00,VWS V15.00,2013-11-17 02:55:00,
2013-11-16 21:58:00,56.0,53.4,30.23,NNE,32,3.0,0.0,91,0.00,,OVC055,0.00,0.00,VWS V14.01,2013-11-17 02:58:00,
2013-11-16 22:00:00,55.0,53.0,30.21,NE,45,2.0,0.0,93,0.00,,CLR,0.00,0.00,VWS V15.00,2013-11-17 03:00:00,
2013-11-16 22:03:00,55.9,53.3,30.23,NNE,26,3.0,0.0,91,0.00,,OVC055,0.00,0.00,VWS V14.01,2013-11-17 03:03:00,
2013-11-16 22:05:00,54.9,52.6,30.21,NE,50,3.0,0.0,92,0.00,,CLR,0.00,0.00,VWS V15.00,2013-11-17 03:05:00,
2013-11-16 22:09:00,55.8,53.2,30.22,NE,41,4.0,0.0,91,0.00,,OVC055,0.00,0.00,VWS V14.01,2013-11-17 03:09:00,
2013-11-16 22:10:00,54.8,52.8,30.21,NE,55,1.0,0.0,93,0.00,,CLR,0.00,0.00,VWS V15.00,2013-11-17 03:10:00,
2013-11-16 22:14:00,55.7,53.1,30.22,NNE,28,2.0,0.0,91,0.00,,OVC055,0.00,0.00,VWS V14.01,2013-11-17 03:14:00,
2013-11-16 22:15:00,54.8,52.8,30.22,ENE,60,1.0,0.0,93,0.00,,CLR,0.00,0.00,VWS V15.00,2013-11-17 03:15:00,
2013-11-16 22:19:00,55.5,52.9,30.22,NE,46,4.0,0.0,91,0.00,,OVC055,0.00,0.00,VWS V14.01,2013-11-17 03:19:00,
2013-11-16 22:20:00,54.8,52.8,30.21,ENE,57,2.0,0.0,93,0.00,,CLR,0.00,0.00,VWS V15.00,2013-11-17 03:20:00,
2013-11-16 22:24:00,55.6,53.3,30.22,ENE,58,3.0,0.0,92,0.00,,OVC055,0.00,0.00,VWS V14.01,2013-11-17 03:24:00,
2013-11-16 22:25:00,54.7,52.7,30.22,ENE,57,1.0,0.0,93,0.00,,CLR,0.00,0.00,VWS V15.00,2013-11-17 03:25:00,
2013-11-16 22:29:00,55.6,53.0,30.22,NE,47,2.0,0.0,91,0.00,,OVC055,0.00,0.00,VWS V14.01,2013-11-17 03:29:00,
2013-11-16 22:30:00,54.5,52.5,30.22,ENE,57,1.0,0.0,93,0.00,,CLR,0.00,0.00,VWS V15.00,2013-11-17 03:30:00,
2013-11-16 22:34:00,55.4,52.8,30.22,ENE,62,2.0,0.0,91,0.00,,OVC055,0.00,0.00,VWS V14.01,2013-11-17 03:34:00,
2013-11-16 22:35:00,54.4,52.7,30.22,NE,38,1.0,0.0,94,0.00,,CLR,0.00,0.00,VWS V15.00,2013-11-17 03:35:00,
2013-11-16 22:39:00,55.3,53.0,30.21,NE,38,2.0,0.0,92,0.00,,CLR,0.00,0.00,VWS V14.01,2013-11-17 03:39:00,
2013-11-16 22:40:00,54.3,52.6,30.22,NE,38,2.0,0.0,94,0.00,,CLR,0.00,0.00,VWS V15.00,2013-11-17 03:40:00,
2013-11-16 22:44:00,55.1,52.8,30.21,NE,55,3.0,0.0,92,0.00,,CLR,0.00,0.00,VWS V14.01,2013-11-17 03:44:00,
2013-11-16 22:45:00,54.3,52.6,30.21,NE,38,2.0,0.0,94,0.00,,CLR,0.00,0.00,VWS V15.00,2013-11-17 03:45:00,
2013-11-16 22:49:00,55.0,52.7,30.21,NE,49,3.0,0.0,92,0.00,,CLR,0.00,0.00,VWS V14.01,2013-11-17 03:49:00,
2013-11-16 22:50:00,54.2,52.5,30.21,NE,38,1.0,0.0,94,0.00,,CLR,0.00,0.00,VWS V15.00,2013-11-17 03:50:00,
2013-11-16 22:54:00,55.0,53.0,30.21,NE,55,1.0,0.0,93,0.00,,CLR,0.00,0.00,VWS V14.01,2013-11-17 03:54:00,
2013-11-16 22:55:00,54.1,52.4,30.21,NE,39,1.0,0.0,94,0.00,,CLR,0.00,0.00,VWS V15.00,2013-11-17 03:55:00,
2013-11-16 22:59:00,55.0,53.0,30.21,NE,45,2.0,0.0,93,0.00,,CLR,0.00,0.00,VWS V14.01,2013-11-17 03:59:00,
2013-11-16 23:00:00,54.0,52.3,30.21,NE,39,2.0,0.0,94,0.00,,CLR,0.00,0.00,VWS V15.00,2013-11-17 04:00:00,
2013-11-16 23:04:00,54.9,52.6,30.21,NE,44,2.0,0.0,92,0.00,,CLR,0.00,0.00,VWS V14.01,2013-11-17 04:04:00,
2013-11-16 23:05:00,54.1,52.7,30.21,NE,39,1.0,0.0,95,0.00,,CLR,0.00,0.00,VWS V15.00,2013-11-17 04:05:00,
2013-11-16 23:09:00,54.9,52.9,30.21,NE,55,2.0,0.0,93,0.00,,CLR,0.00,0.00,VWS V14.01,2013-11-17 04:09:00,
2013-11-16 23:10:00,53.9,52.2,30.21,NE,39,0.0,0.0,94,0.00,,CLR,0.00,0.00,VWS V15.00,2013-11-17 04:10:00,
2013-11-16 23:14:00,54.8,52.8,30.22,NE,55,2.0,0.0,93,0.00,,CLR,0.00,0.00,VWS V14.01,2013-11-17 04:14:00,
2013-11-16 23:15:00,53.7,52.0,30.21,NE,39,1.0,0.0,94,0.00,,CLR,0.00,0.00,VWS V15.00,2013-11-17 04:15:00,
2013-11-16 23:19:00,54.8,52.8,30.21,ENE,57,3.0,0.0,93,0.00,,CLR,0.00,0.00,VWS V14.01,2013-11-17 04:19:00,
2013-11-16 23:20:00,53.6,51.9,30.21,NE,39,1.0,0.0,94,0.00,,CLR,0.00,0.00,VWS V15.00,2013-11-17 04:20:00,
2013-11-16 23:24:00,54.7,52.7,30.22,ENE,57,1.0,0.0,93,0.00,,CLR,0.00,0.00,VWS V14.01,2013-11-17 04:24:00,
2013-11-16 23:25:00,53.7,52.3,30.21,NE,40,2.0,0.0,95,0.00,,CLR,0.00,0.00,VWS V15.00,2013-11-17 04:25:00,
2013-11-16 23:29:00,54.5,52.5,30.22,ENE,57,1.0,0.0,93,0.00,,CLR,0.00,0.00,VWS V14.01,2013-11-17 04:29:00,
2013-11-16 23:30:00,54.1,53.0,30.20,NE,40,2.0,0.0,96,0.00,,CLR,0.00,0.00,VWS V15.00,2013-11-17 04:30:00,
2013-11-16 23:34:00,54.4,52.7,30.22,NE,38,2.0,0.0,94,0.00,,CLR,0.00,0.00,VWS V14.01,2013-11-17 04:34:00,
2013-11-16 23:35:00,54.2,52.8,30.20,ENE,63,2.0,0.0,95,0.00,,CLR,0.00,0.00,VWS V15.00,2013-11-17 04:35:00,
2013-11-16 23:39:00,54.3,52.6,30.22,NE,38,2.0,0.0,94,0.00,,CLR,0.00,0.00,VWS V14.01,2013-11-17 04:39:00,
2013-11-16 23:40:00,54.0,52.6,30.20,ENE,76,2.0,0.0,95,0.00,,CLR,0.00,0.00,VWS V15.00,2013-11-17 04:40:00,
2013-11-16 23:44:00,54.3,52.6,30.21,NE,38,1.0,0.0,94,0.00,,CLR,0.00,0.00,VWS V14.01,2013-11-17 04:44:00,
2013-11-16 23:45:00,53.9,52.5,30.19,East,79,2.0,0.0,95,0.00,,CLR,0.00,0.00,VWS V15.00,2013-11-17 04:45:00,
2013-11-16 23:49:00,54.2,52.5,30.21,NE,38,1.0,0.0,94,0.00,,CLR,0.00,0.00,VWS V14.01,2013-11-17 04:49:00,
2013-11-16 23:50:00,54.2,52.8,30.19,East,96,4.0,0.0,95,0.00,,CLR,0.00,0.00,VWS V15.00,2013-11-17 04:50:00,
2013-11-16 23:54:00,54.1,52.4,30.21,NE,39,0.0,0.0,94,0.00,,CLR,0.00,0.00,VWS V14.01,2013-11-17 04:54:00,
2013-11-16 23:55:00,54.8,53.7,30.19,East,79,3.0,0.0,96,0.00,,CLR,0.00,0.00,VWS V15.00,2013-11-17 04:55:00,
2013-11-16 23:59:00,54.0,52.3,30.21,NE,39,2.0,0.0,94,0.00,,CLR,0.00,0.00,VWS V14.01,2013-11-17 04:59:00,